This is the latest recevied weather packets stored in our database for station/object DG6HD-13. If no packets are shown the sender has not sent any weather packets the latest 10 day(s).
| Time | Temp. | Humidity | Pressure | Rain* | Wind** | Luminosity | Snow |
|---|---|---|---|---|---|---|---|
| 1778349852 | 15.56° C | 43% | 1019.5 hPa | - | - | - | - |
| 1778348951 | 15° C | 43% | 1019.5 hPa | - | - | - | - |
| 1778348050 | 15.56° C | 42% | 1019.6 hPa | - | - | - | - |
| 1778347149 | 16.11° C | 40% | 1019.5 hPa | - | - | - | - |
| 1778346249 | 16.11° C | 39% | 1019.5 hPa | - | - | - | - |
| 1778345348 | 16.11° C | 38% | 1019.5 hPa | - | - | - | - |
| 1778344447 | 17.22° C | 36% | 1019.4 hPa | - | - | - | - |
| 1778343546 | 17.22° C | 37% | 1019.6 hPa | - | - | - | - |
| 1778342645 | 17.22° C | 36% | 1019.7 hPa | - | - | - | - |
| 1778341744 | 17.78° C | 36% | 1020 hPa | - | - | - | - |
| 1778340843 | 18.33° C | 35% | 1020.2 hPa | - | - | - | - |
| 1778339943 | 18.89° C | 34% | 1020.2 hPa | - | - | - | - |
| 1778339042 | 18.89° C | 35% | 1020.3 hPa | - | - | - | - |
| 1778338141 | 18.33° C | 35% | 1020.4 hPa | - | - | - | - |
| 1778337240 | 19.44° C | 34% | 1020.7 hPa | - | - | - | - |
| 1778336339 | 19.44° C | 33% | 1020.7 hPa | - | - | - | - |
| 1778335439 | 19.44° C | 33% | 1020.9 hPa | - | - | - | - |
| 1778334538 | 18.33° C | 36% | 1021.2 hPa | - | - | - | - |
| 1778333637 | 19.44° C | 36% | 1021.3 hPa | - | - | - | - |
| 1778332736 | 19.44° C | 37% | 1021.4 hPa | - | - | - | - |
| 1778331835 | 18.89° C | 37% | 1021.5 hPa | - | - | - | - |
| 1778330934 | 18.89° C | 36% | 1021.6 hPa | - | - | - | - |
| 1778330034 | 18.89° C | 37% | 1021.8 hPa | - | - | - | - |
| 1778329133 | 18.89° C | 37% | 1021.8 hPa | - | - | - | - |
| 1778328232 | 18.89° C | 36% | 1021.9 hPa | - | - | - | - |
* Rain since midnight (hover to see other rain measurements)
** Current wind speed in m/s (hover to see current wind gust speed)